Skip Page Navigation
NASA JPL Caltech
NASA Logo - Jet Propulsion Laboratory + View the NASA Portal
+ Center for Near-Earth Object Studies
JPL Home Earth Solar System Stars & Galaxies Technology
JPL Solar System Dynamics
BODIES ORBITS EPHEMERIDES TOOLS PHYSICAL DATA DISCOVERY FAQ SITE MAP
JPL Small-Body Database Browser
Search: [ help ]  
469893 (2005 VS119)
Classification: Main-belt Asteroid          SPK-ID: 2469893
Ephemeris | Orbit Diagram | Orbital Elements | Mission Design | Physical Parameters | Discovery Circumstances ]

[ hide orbit diagram ]

For accurate long-term ephemerides, please instead use our Horizons system.This orbit viewer was implemented using two-body methods, and hence should not be used for determining accurate long-term trajectories (over several years or decades) or planetary encounter circumstances.


Orbital Elements at Epoch 2459396.5 (2021-Jul-01.0) TDB
Reference: JPL 12 (heliocentric ecliptic J2000)
 Element Value Uncertainty (1-sigma)   Units 
e .1351785606620383 6.4813e-08  
a 2.715359305270819 2.2919e-08 au
q 2.348300942704037 1.7755e-07 au
i 15.62287044800736 6.2744e-06 deg
node 103.7269835631154 2.1847e-05 deg
peri 22.12309440892786 4.3001e-05 deg
M 156.9147825467782 3.3983e-05 deg
tp 2458684.138002691717
(2019-Jul-19.63800269)
0.00014986 TDB
period 1634.32861371446
4.47
2.0692e-05
5.665e-08
d
yr
n .2202739381658388 2.7888e-09 deg/d
Q 3.0824176678376 2.6017e-08 au
  Orbit Determination Parameters
   # obs. used (total)      160  
   data-arc span      5318 days (14.56 yr)  
   first obs. used      2005-11-03  
   last obs. used      2020-05-26  
   planetary ephem.      DE441  
   SB-pert. ephem.      SB441-N16  
   condition code      0  
   norm. resid. RMS      .53018  
   source      ORB  
   producer      Otto Matic  
   solution date      2021-Apr-14 16:20:41  

Additional Information
 Earth MOID = 1.37111 au 
 Jupiter MOID = 2.0469 au 
 T_jup = 3.295 
[ show covariance matrix ]

Ephemeris | Orbit Diagram | Orbital Elements | Mission Design | Physical Parameters | Discovery Circumstances ]

Physical Parameter Table
Parameter Symbol Value Units Sigma Reference Notes
absolute magnitude H 16.92   n/a E2021B25  

469893 (2005 VS119)          Discovered 2005-Nov-03 by Mt. Lemmon Survey at Mount Lemmon
Reference: Last Updated: 2016-08-22
Ephemeris | Orbit Diagram | Orbital Elements | Mission Design | Physical Parameters | Discovery Circumstances ]
ABOUT SSD CREDITS/AWARDS PRIVACY/COPYRIGHT GLOSSARY LINKS
FirstGov 2021-Jul-29 00:57 UT
(server date/time)  
NASA Home Page
Site Manager:   Ryan S. Park
Webmaster  Alan B. Chamberlin